Location: Hochstatterhof
(48.7256°N, 10.3487°E)
Time: 01:47:23
(UTC+00:00)

ARIANE 5 R/B - Pass Details

Date: 26 September 2023
Orbit: 748 x 793 km, 98.8° (Epoch: 04 December)

Event Time Altitude Azimuth Distance (km) Brightness Sun altitude
Rises 04:21:44 0° 13° (NNE) 3,250 6.0 -8.8°
Reaches altitude 10° 04:24:04 10° 11° (N) 2,313 5.2 -8.4°
Maximum altitude 04:29:08 71° 289° (WNW) 804 2.5 -7.6°
Drops below altitude 10° 04:34:06 10° 206° (SSW) 2,271 4.6 -6.8°
Sets 04:36:22 0° 204° (SSW) 3,188 5.4 -6.4°
